Temperature
19 19 19 19 19 18 18 18 19 19 19 19 19 19 19 19 19 19 19 19 19 19 19 19 19 19 19 19 19 19 19 19 19 19 19 18 18 18 18 17 17 17 18
19 19 19 19 19 18 18 18 19 19 19 19 19 19 19 19 19 19 19 19 19 19 19 19 18 18 19 19 19 19 19 19 19 18 18 18 18 18 17 17 17 17 17
19 19 19 19 19 18 19 18 18 19 19 19 19 19 19 19 19 19 19 19 19 19 18 18 18 18 18 19 19 19 18 18 18 18 18 18 18 18 17 17 17 18 17
19 19 19 19 19 18 19 18 18 19 19 19 19 19 19 19 19 19 19 18 18 18 18 18 18 18 18 18 18 18 18 18 18 18 17 17 18 18 17 17 18 18 17
19 19 19 19 19 18 18 18 18 18 18 18 18 18 18 18 18 19 18 18 18 18 18 18 18 18 18 18 18 18 18 18 18 17 17 17 18 18 18 18 18 17 17
19 19 19 19 19 18 18 18 18 18 18 18 18 18 18 18 18 18 18 18 18 18 18 18 18 18 18 18 18 18 18 18 18 18 18 18 18 18 18 18 17 17 17
19 19 19 19 19 19 18 18 18 18 18 18 18 18 18 18 18 18 18 18 18 18 18 18 18 18 18 18 18 18 18 18 18 18 18 18 18 18 18 18 17 17 17
19 19 19 19 19 19 18 18 18 18 18 18 18 18 18 18 18 18 18 18 18 18 18 18 18 18 18 18 18 18 18 18 18 18 18 18 18 18 18 18 17 17 17
19 19 19 19 19 19 19 18 19 18 18 18 18 18 19 19 19 18 18 18 18 18 18 18 18 18 18 18 18 18 18 18 18 18 18 18 18 18 18 18 17 17 17
19 19 19 19 19 19 19 19 19 18 18 18 18 18 18 19 18 18 18 18 18 18 18 18 18 18 18 18 18 18 19 19 18 18 18 19 18 18 18 18 18 17 17
20 19 19 18 19 18 18 19 19 18 18 18 18 18 18 18 18 18 18 18 18 18 18 18 18 18 18 18 18 18 19 19 18 18 18 19 18 18 18 18 18 18 17
20 19 19 19 19 19 18 19 18 18 18 18 18 18 18 18 18 18 18 18 18 18 18 18 18 18 18 18 18 18 18 18 18 18 19 19 19 18 18 18 18 18 17
20 20 19 19 19 19 19 19 18 18 18 18 18 18 18 18 18 18 18 18 18 18 18 18 18 18 18 18 18 18 19 18 19 19 19 19 19 18 18 18 18 18 18
20 20 20 19 19 19 19 19 19 19 19 18 18 18 18 18 18 18 18 18 18 18 18 18 18 18 18 18 18 18 19 19 19 19 19 19 19 18 18 18 18 18 18
20 20 20 19 19 19 19 19 19 19 19 18 19 18 18 18 18 18 18 18 18 18 18 18 18 18 18 18 18 19 19 19 19 19 19 19 18 18 18 18 18 18 18
20 20 20 19 19 19 19 19 19 19 19 19 19 19 19 18 18 18 18 18 18 18 18 18 18 18 18 18 18 19 19 19 19 18 19 18 18 18 18 18 18 18 18
21 20 20 19 19 19 19 19 19 19 19 19 19 19 19 18 18 18 18 18 18 19 18 18 18 18 18 18 19 19 19 19 19 18 18 18 18 18 18 18 18 18 18
20 20 20 19 19 19 19 19 19 19 19 19 19 19 19 19 19 19 18 18 19 18 18 18 19 19 19 19 19 19 19 19 19 19 19 18 18 18 18 18 18 18 18
20 20 20 20 19 19 19 19 19 19 19 19 19 19 19 19 19 19 19 19 19 19 19 19 19 19 19 19 19 19 19 19 19 19 19 19 19 18 18 18 18 18 18
20 20 20 19 19 19 19 19 19 19 19 19 19 19 19 19 19 19 19 19 19 18 19 19 19 19 19 19 19 19 19 19 19 19 19 19 19 19 18 18 18 18 18
20 20 20 19 19 19 19 19 19 19 19 19 19 19 19 19 19 19 19 19 19 19 19 19 18 18 18 18 19 19 19 19 19 19 19 19 19 19 19 18 18 18 18
21 20 20 20 20 19 19 19 19 19 19 19 19 19 19 19 19 19 19 19 19 19 19 19 18 18 18 18 19 19 19 19 19 19 19 19 19 19 19 19 18 18 18
21 20 20 20 20 20 19 19 19 19 19 20 20 19 19 19 19 19 19 19 19 19 19 19 19 18 19 19 19 19 19 19 19 19 19 19 19 19 19 19 19 18 18
22 21 20 20 20 20 20 19 19 19 19 20 20 20 20 19 19 19 19 19 19 19 19 19 19 19 19 18 19 19 19 19 19 19 19 19 19 19 19 18 18 18 18
22 21 21 20 20 20 20 20 19 19 20 20 20 20 20 19 19 19 19 19 19 19 19 19 19 19 18 18 18 19 19 19 19 19 19 19 19 19 19 19 18 18 18
23 22 21 20 20 20 20 20 20 20 20 20 20 20 20 19 19 19 19 19 19 19 19 19 19 19 19 19 18 18 19 19 19 19 19 19 19 19 19 19 19 18 18
Wind_Speed
10 11 14 15 16 17 18 19 19 20 20 20 20 20 20 21 20 20 20 19 18 17 16 15 14 14 13 13 14 13 14 14 15 15 15 15 14 13 12 12 14 15 16
14 13 15 16 17 18 18 19 19 19 19 19 19 19 19 19 19 19 18 18 17 16 15 14 13 13 12 12 12 12 11 12 12 13 14 14 13 12 11 11 13 14 15
16 15 16 17 17 18 18 18 18 18 19 19 19 18 18 18 18 17 17 16 16 15 14 13 12 12 11 11 10 10 9 10 10 12 13 12 12 12 13 14 15 15 14
16 16 16 18 18 18 18 17 17 17 17 17 17 17 17 16 16 16 16 15 14 14 13 12 12 11 10 10 9 8 7 7 7 8 8 10 11 12 13 13 14 13 13
17 17 18 19 19 18 18 17 17 17 16 16 16 16 15 15 14 14 14 14 13 13 12 11 10 10 9 8 7 6 5 5 4 5 6 13 13 12 12 12 12 12 11
17 18 19 19 18 18 17 17 16 16 16 15 15 14 14 14 13 13 13 12 12 11 10 10 9 9 8 7 5 4 3 3 4 4 9 14 13 12 11 11 11 11 10
17 17 18 19 18 17 17 17 16 15 15 14 14 14 13 12 12 12 11 10 10 9 9 8 8 7 6 5 3 2 2 4 7 3 10 13 14 13 11 10 10 10 9
17 17 18 19 18 17 16 16 16 15 14 13 13 12 11 11 10 10 10 9 9 8 7 7 7 6 5 3 2 2 3 6 5 4 12 14 15 13 11 10 10 9 9
16 16 15 16 16 16 15 15 14 14 13 12 11 11 10 10 10 9 9 8 8 7 7 6 6 5 4 3 2 3 5 7 6 3 11 13 14 12 10 9 9 9 9
15 15 13 14 15 14 14 14 13 13 12 11 10 10 10 10 9 9 9 8 7 7 6 5 5 4 4 4 4 5 6 7 6 3 10 13 14 12 10 9 8 8 9
13 12 13 13 12 13 14 14 14 13 12 11 10 10 9 8 9 9 9 9 8 7 6 5 5 5 5 6 6 7 7 6 2 4 10 15 14 11 10 9 8 8 8
13 11 10 12 11 11 11 13 12 11 11 10 10 10 9 7 7 8 10 10 8 7 7 7 7 6 7 6 7 8 6 6 2 5 11 16 14 12 10 9 8 8 8
13 11 10 10 10 9 7 9 7 7 9 9 9 8 7 6 6 7 7 8 8 8 7 8 9 8 7 6 6 7 7 4 2 5 11 15 13 12 10 9 8 8 8
13 11 10 9 8 7 7 6 6 5 5 5 7 7 5 3 3 4 4 5 6 6 5 5 5 6 4 5 5 5 4 3 2 6 11 14 13 12 11 10 10 9 9
13 11 10 9 7 5 5 3 5 4 5 6 6 5 4 3 2 3 2 3 4 5 5 3 3 2 3 3 4 4 3 2 3 5 9 14 14 13 12 12 12 11 11
12 11 10 10 8 6 4 2 2 4 4 5 5 6 4 3 3 2 2 2 2 3 4 4 4 3 2 2 2 2 2 2 3 4 8 12 15 15 14 14 13 12 12
12 11 10 10 9 7 6 5 4 4 6 4 4 6 5 4 4 2 2 2 2 3 4 4 3 3 3 3 2 2 2 2 2 4 6 8 11 14 15 14 14 13 13
12 11 10 11 11 9 6 5 4 4 4 4 5 5 6 4 4 2 2 2 2 3 3 3 3 3 2 2 2 3 2 2 3 4 6 7 8 9 12 15 15 14 14
12 11 10 8 10 10 7 5 4 3 3 4 5 5 6 6 6 4 2 2 3 2 2 3 2 2 2 3 3 4 4 3 4 5 5 6 8 9 10 13 16 15 14
13 12 11 9 8 9 7 5 4 4 4 4 4 5 6 6 6 4 3 3 3 2 1 1 1 2 2 2 4 3 3 3 3 3 4 4 6 8 9 10 12 13 15
13 12 11 10 9 7 6 6 6 5 5 4 5 7 8 6 6 4 2 3 3 2 2 2 1 2 3 3 2 2 3 3 3 4 3 2 3 5 6 8 10 9 10
14 13 12 10 10 9 7 6 5 5 4 5 4 5 7 7 7 6 4 4 3 3 3 3 2 2 3 2 2 2 1 1 2 3 3 3 3 2 3 6 7 8 7
15 15 13 11 11 10 9 6 5 4 4 4 5 5 6 8 8 6 5 4 4 4 4 4 3 3 3 3 2 1 1 1 2 2 2 1 1 1 1 2 5 8 8
15 14 12 12 11 10 9 8 8 7 6 5 4 5 6 7 7 7 6 5 4 3 3 4 4 3 3 3 3 3 2 1 1 1 2 1 2 2 2 2 2 5 8
16 14 13 11 11 10 9 9 8 7 6 5 5 5 6 6 7 7 7 6 5 4 4 4 3 4 3 4 3 2 3 3 3 2 2 2 2 2 3 3 2 2 5
15 15 14 12 11 11 10 9 8 7 6 5 5 5 5 5 6 7 7 6 6 5 5 5 4 4 4 4 3 3 2 2 2 2 3 3 3 2 2 2 3 2 3
Wind_Direction
111 110 110 113 112 112 110 109 111 110 108 106 105 105 105 105 105 105 105 106 107 106 104 101 97 94 90 89 89 90 92 94 97 101 102 101 102 104 106 111 110 104 107
120 117 114 114 115 114 113 111 111 111 110 109 109 108 108 108 108 108 107 107 107 106 105 103 100 97 96 95 96 98 101 107 110 113 113 107 104 103 103 100 101 110 111
118 121 119 117 117 116 114 112 112 112 111 111 110 110 109 108 109 109 108 108 108 108 108 106 103 101 100 100 102 105 111 120 126 131 128 117 109 101 98 99 106 111 112
119 121 119 118 118 118 117 114 111 110 111 112 112 111 110 110 111 110 110 111 110 110 109 108 106 105 105 105 108 112 121 132 145 157 153 129 117 112 108 107 112 114 113
114 115 118 120 119 119 118 115 113 113 114 114 113 113 112 112 112 113 113 114 113 113 111 110 110 107 107 109 114 122 135 150 175 208 120 106 111 121 118 116 118 119 119
115 116 121 122 121 121 121 119 117 117 120 119 118 116 116 116 115 115 115 116 116 115 113 111 112 112 111 112 121 137 161 202 244 216 128 116 119 128 127 126 126 125 126
119 119 124 124 123 124 124 124 123 122 122 123 122 120 121 120 119 117 117 118 118 117 115 115 116 116 116 117 129 170 231 268 263 198 119 118 127 133 133 133 133 131 132
121 122 125 125 126 126 127 129 129 128 127 126 126 125 124 124 123 122 122 123 123 122 121 123 123 124 128 133 160 230 274 292 278 129 116 120 132 137 139 141 143 143 142
125 127 130 132 131 131 131 131 131 133 133 133 133 132 133 132 131 131 131 129 128 129 131 133 137 141 149 170 215 255 275 291 300 138 123 124 135 138 142 146 150 153 157
127 129 132 136 137 138 136 135 134 136 139 141 144 146 147 147 148 149 146 141 139 142 146 147 152 166 180 204 230 253 273 292 273 148 120 129 138 142 147 152 156 162 167
126 134 140 139 139 142 142 140 143 147 150 153 159 162 165 169 163 164 157 153 157 162 167 173 180 188 203 220 230 248 271 275 263 106 117 136 143 147 153 160 166 172 177
137 141 137 137 142 147 144 145 156 161 162 172 171 174 181 185 166 157 158 167 173 183 189 198 199 207 216 217 217 229 249 253 211 128 133 146 151 155 161 169 178 182 186
144 143 141 144 143 139 136 149 156 157 162 175 171 169 172 173 159 148 162 171 186 196 204 197 204 218 215 213 200 207 230 246 178 127 143 152 157 162 169 178 186 191 195
147 147 148 139 134 134 134 142 149 156 161 160 164 174 166 169 161 155 170 174 184 192 194 204 208 223 227 231 225 211 222 232 164 132 155 163 166 172 181 188 194 199 204
150 152 145 136 123 116 115 152 157 159 157 151 157 175 172 173 161 152 160 175 196 185 182 202 209 221 239 233 225 216 224 216 179 164 161 175 179 184 190 195 202 206 207
153 151 145 142 137 137 151 182 160 161 150 148 158 161 182 172 154 152 162 189 207 199 190 189 205 207 243 245 250 253 247 211 189 183 173 182 189 193 196 201 206 210 212
155 154 152 154 152 160 179 190 178 181 164 156 148 153 170 180 160 162 179 193 196 213 206 198 210 198 221 229 235 250 252 246 209 187 191 190 192 199 203 205 208 212 214
159 159 166 171 163 171 189 198 192 180 160 157 159 167 171 173 162 180 181 194 201 229 211 207 216 212 220 233 233 239 227 224 217 215 208 201 190 195 202 206 207 210 213
160 161 169 174 164 173 184 193 203 178 164 166 171 171 171 178 184 193 185 183 211 227 227 236 187 204 224 238 244 233 226 217 215 221 213 206 194 188 188 200 205 210 214
163 165 171 175 168 174 177 189 204 196 182 183 178 170 172 190 188 194 185 189 213 211 223 257 234 223 244 243 263 256 242 216 211 232 224 213 197 192 193 189 193 208 216
166 169 175 178 174 178 181 189 198 198 199 193 189 176 178 197 187 193 202 181 206 199 214 230 227 241 241 224 256 269 249 239 234 218 218 218 204 186 183 172 180 194 201
171 173 176 180 179 186 187 195 197 197 200 196 190 168 181 193 193 196 196 210 201 199 214 228 215 239 254 216 219 279 306 299 274 241 202 202 216 176 182 181 174 183 186
176 179 181 182 180 189 187 190 202 194 209 203 183 177 187 193 199 207 187 210 212 204 200 212 213 220 245 253 212 213 234 254 281 264 249 210 191 209 224 199 182 179 184
180 180 178 179 179 186 188 196 201 199 204 205 192 185 188 194 201 197 199 207 219 216 197 214 205 221 229 254 249 228 226 209 246 290 281 259 216 208 228 258 224 181 174
182 181 179 176 180 183 189 199 204 209 209 205 197 188 193 194 201 202 203 203 208 216 214 216 212 216 229 241 251 247 237 226 230 235 261 273 260 231 207 220 218 182 175
183 182 180 176 180 182 191 200 201 212 215 215 202 188 200 201 203 205 204 200 203 210 215 216 223 223 235 246 260 268 255 246 239 243 253 259 259 256 226 216 205 166 187
Height
1505 1506 1506 1508 1509 1511 1513 1515 1517 1519 1522 1524 1526 1528 1530 1532 1534 1536 1538 1540 1542 1543 1545 1546 1547 1548 1549 1550 1551 1552 1552 1553 1554 1555 1555 1556 1557 1558 1559 1560 1561 1562 1563
1506 1507 1508 1510 1512 1514 1516 1518 1520 1522 1525 1527 1529 1531 1533 1535 1537 1539 1541 1542 1544 1546 1547 1548 1549 1550 1551 1552 1553 1553 1554 1555 1556 1556 1557 1558 1559 1560 1561 1562 1563 1564 1565
1507 1508 1510 1512 1514 1517 1519 1521 1523 1526 1528 1530 1532 1534 1536 1538 1540 1541 1543 1545 1546 1548 1549 1550 1551 1552 1553 1554 1554 1555 1556 1557 1557 1558 1559 1560 1562 1562 1563 1564 1565 1566 1567
1508 1510 1512 1514 1517 1519 1521 1524 1526 1528 1530 1533 1535 1537 1539 1541 1542 1544 1545 1547 1548 1550 1551 1552 1553 1554 1555 1555 1556 1557 1558 1559 1559 1560 1562 1563 1564 1564 1565 1566 1567 1567 1568
1511 1512 1514 1517 1519 1522 1524 1526 1528 1531 1533 1535 1537 1539 1541 1543 1545 1546 1548 1549 1550 1551 1552 1553 1555 1555 1556 1557 1558 1559 1560 1561 1561 1563 1564 1565 1565 1566 1567 1567 1568 1569 1570
1513 1515 1517 1519 1522 1524 1527 1529 1531 1533 1535 1537 1539 1542 1543 1545 1547 1548 1550 1551 1552 1553 1554 1555 1556 1557 1558 1559 1559 1560 1561 1562 1563 1565 1566 1566 1567 1567 1568 1569 1569 1570 1571
1516 1518 1520 1522 1525 1527 1529 1531 1534 1535 1537 1539 1542 1544 1545 1547 1548 1550 1551 1552 1553 1554 1555 1556 1557 1558 1559 1560 1561 1562 1563 1564 1565 1566 1567 1567 1568 1568 1569 1570 1571 1571 1572
1518 1520 1522 1525 1527 1529 1531 1534 1536 1538 1539 1541 1544 1545 1547 1549 1550 1552 1553 1554 1555 1556 1557 1558 1558 1559 1560 1561 1562 1563 1564 1564 1566 1568 1568 1568 1569 1569 1570 1571 1571 1572 1573
1521 1522 1524 1527 1529 1532 1534 1536 1538 1540 1542 1544 1546 1547 1549 1550 1552 1553 1554 1555 1556 1557 1558 1559 1560 1560 1561 1562 1563 1564 1565 1566 1567 1568 1568 1569 1569 1570 1570 1571 1572 1573 1574
1523 1525 1527 1529 1531 1533 1535 1537 1539 1541 1543 1545 1547 1549 1550 1552 1553 1555 1556 1557 1557 1558 1559 1560 1561 1561 1562 1563 1564 1565 1566 1567 1568 1569 1569 1569 1570 1570 1571 1572 1573 1573 1574
1525 1527 1529 1531 1533 1536 1538 1539 1541 1544 1545 1547 1549 1550 1552 1553 1554 1556 1557 1558 1559 1559 1560 1561 1562 1562 1563 1564 1565 1566 1566 1567 1568 1568 1569 1570 1570 1571 1571 1572 1573 1573 1574
1527 1529 1531 1533 1535 1538 1540 1541 1543 1545 1547 1549 1550 1552 1553 1555 1556 1557 1558 1559 1559 1560 1561 1562 1562 1563 1564 1564 1565 1566 1567 1567 1568 1568 1569 1570 1570 1571 1571 1572 1572 1573 1574
1527 1530 1532 1535 1537 1539 1541 1543 1545 1547 1548 1550 1552 1553 1555 1556 1557 1558 1559 1559 1560 1561 1561 1562 1563 1563 1564 1565 1566 1567 1567 1568 1568 1569 1569 1569 1570 1570 1571 1571 1572 1572 1573
1528 1531 1533 1536 1538 1540 1542 1544 1546 1548 1549 1551 1553 1554 1555 1557 1558 1559 1559 1560 1561 1561 1562 1562 1563 1564 1565 1565 1566 1567 1567 1568 1568 1568 1568 1569 1569 1570 1570 1570 1571 1571 1572
1528 1531 1533 1536 1538 1540 1542 1545 1547 1549 1550 1551 1553 1554 1556 1557 1558 1559 1560 1560 1561 1562 1562 1563 1563 1564 1564 1565 1566 1567 1567 1568 1568 1568 1568 1568 1569 1569 1569 1569 1570 1570 1571
1528 1531 1533 1535 1537 1540 1542 1544 1547 1549 1551 1552 1553 1554 1556 1557 1558 1559 1559 1560 1561 1562 1562 1562 1563 1563 1564 1565 1565 1566 1566 1566 1567 1567 1567 1567 1568 1568 1568 1568 1568 1569 1569
1528 1530 1533 1535 1537 1539 1542 1544 1547 1549 1551 1552 1553 1554 1555 1556 1557 1558 1559 1559 1560 1561 1561 1562 1562 1563 1563 1564 1564 1564 1565 1565 1566 1566 1566 1566 1566 1566 1566 1567 1567 1567 1568
1527 1529 1532 1535 1537 1539 1542 1544 1547 1549 1550 1551 1552 1553 1554 1555 1556 1557 1558 1559 1559 1560 1561 1561 1562 1562 1563 1563 1563 1563 1564 1564 1564 1565 1565 1565 1565 1565 1565 1565 1565 1565 1566
1525 1528 1531 1534 1536 1538 1541 1543 1546 1548 1549 1550 1551 1552 1553 1554 1555 1556 1557 1558 1558 1559 1560 1560 1560 1561 1561 1562 1562 1562 1562 1563 1563 1563 1563 1563 1563 1563 1563 1563 1563 1563 1564
1524 1526 1529 1532 1535 1537 1540 1542 1544 1546 1548 1549 1550 1551 1552 1553 1554 1555 1556 1556 1557 1558 1558 1559 1559 1559 1560 1560 1560 1561 1561 1561 1561 1561 1561 1561 1561 1561 1561 1561 1561 1561 1561
1522 1524 1527 1530 1532 1535 1538 1540 1542 1544 1546 1547 1549 1550 1551 1552 1553 1554 1555 1555 1556 1556 1557 1557 1558 1558 1559 1559 1560 1560 1560 1559 1559 1559 1560 1560 1560 1560 1560 1560 1559 1559 1559
1519 1521 1524 1527 1530 1533 1535 1538 1540 1542 1544 1546 1547 1548 1549 1550 1552 1553 1553 1554 1554 1555 1555 1556 1556 1557 1557 1558 1558 1558 1558 1559 1558 1558 1558 1558 1559 1559 1559 1558 1558 1557 1557
1516 1518 1521 1524 1527 1530 1533 1536 1539 1541 1542 1544 1545 1546 1547 1548 1550 1551 1551 1552 1553 1553 1554 1554 1554 1555 1556 1557 1557 1558 1558 1557 1557 1557 1557 1557 1557 1557 1557 1557 1556 1555 1555
1513 1516 1519 1522 1524 1527 1531 1533 1535 1537 1539 1541 1542 1544 1545 1546 1547 1549 1549 1550 1551 1552 1552 1552 1553 1553 1554 1555 1556 1556 1557 1556 1556 1556 1556 1556 1556 1555 1555 1555 1554 1553 1552
1510 1514 1516 1519 1521 1524 1527 1530 1533 1535 1537 1539 1540 1541 1543 1544 1545 1546 1547 1548 1548 1549 1550 1550 1551 1552 1552 1553 1553 1554 1554 1554 1554 1555 1554 1554 1554 1553 1553 1552 1552 1551 1551
1507 1511 1514 1516 1518 1521 1524 1527 1530 1532 1534 1536 1538 1539 1540 1541 1542 1543 1544 1545 1546 1546 1547 1548 1549 1549 1550 1551 1551 1552 1552 1552 1552 1552 1552 1552 1551 1551 1551 1550 1550 1549 1549